Location: Barrio Las Umbrías
(40.4173°N, 4.8685°W)
Time: 12:24:14
(UTC+00:00)

SJ-6B - Pass Details

Date: 17 August 2022
Orbit: 506 x 576 km, 97.5° (Epoch: 27 September)

Event Time Altitude Azimuth Distance (km) Brightness Sun altitude
Rises 19:50:06 0° 161° (SSE) 2,766 6.0 -7.2°
Reaches altitude 10° 19:52:15 10° 159° (SSE) 1,867 5.1 -7.6°
Maximum altitude 19:56:17 71° 76° (ENE) 601 2.8 -8.3°
Drops below altitude 10° 20:00:16 10° 353° (N) 1,848 6.0 -8.9°
Sets 20:02:23 0° 351° (N) 2,736 6.9 -9.3°
